Regional Weather Roundup
Issued by NWS

Home | Current Version | Previous Version | Text Only | Print | Product List | Glossary Off
Versions: 1 2 3 4 5 6 7 8 9 10 11 12 13 14 15 16 17 18 19 20 21 22 23 24 25 26 27

000
ASUS45 KBOI 231910
RWRID

IDAHO REGIONAL WEATHER ROUNDUP
NATIONAL WEATHER SERVICE BOISE ID
1200 PM MST MON JAN 23 2017

NOTE: "FAIR" INDICATES FEW OR NO CLOUDS BELOW 12000 FEET
WITH NO SIGNIFICANT WEATHER AND/OR OBSTRUCTIONS TO VISIBILITY

IDZ012-014-232000-
SOUTHWEST IDAHO


CITY           SKY/WX    TMP DP  RH WIND       PRES   REMARKS
BOISE          LGT SNOW  29  27  92 NW12      29.63F FOG     WCI  19
CALDWELL       LGT RAIN  33  29  85 NW6       29.67F WCI  28
MOUNTAIN HOME  LGT SNOW  30  30 100 NW20      29.60S FOG     WCI  18
$$

IDZ016-017-232000-
SOUTHCENTRAL IDAHO


CITY           SKY/WX    TMP DP  RH WIND       PRES   REMARKS
BURLEY         LGT SNOW  34  30  85 CALM      29.45F VSB 1
JEROME         SNOW      28  28 100 W12       29.52F VSB 1/4 WCI  18
TWIN FALLS     SNOW      28  26  92 W21       29.51S VSB 1/2 WCI  15
$$

IDZ019>023-232000-
SOUTHEAST IDAHO


CITY           SKY/WX    TMP DP  RH WIND       PRES   REMARKS
IDAHO FALLS    LGT SNOW  30  29  96 NE10      29.49F VSB 3/4 WCI  21
POCATELLO      LGT SNOW  33  31  92 NE6       29.45F VSB 1   WCI  28
REXBURG        CLOUDY    29  22  75 E6        29.49F WCI  23
$$

IDZ006-010-011-018-031-032-232000-
CENTRAL IDAHO MOUNTAINS


CITY           SKY/WX    TMP DP  RH WIND       PRES   REMARKS
MCCALL         CLOUDY    18  16  92 CALM      29.54S
HAILEY         LGT SNOW  28  27  93 W6        29.48F VSB 1   WCI  22
STANLEY          N/A     17  14  88 E3        29.52F
SALMON         CLOUDY   N/A N/A N/A CALM      29.65F
CHALLIS        CLOUDY    19  19 100 CALM      29.57F
$$

IDZ002-004-006-007-026-232000-
NORTHERN IDAHO


CITY           SKY/WX    TMP DP  RH WIND       PRES   REMARKS
LEWISTON       CLOUDY    31  29  92 N5        29.77S FOG     WCI  26
LOWELL           N/A     39  31  72 CALM      29.75F
COEUR D`ALENE  CLOUDY    34  33  96 NE8       29.75S WCI  27
MULLAN PASS    LGT SNOW  25  22  88 N3        29.61S FOG
$$




USA.gov is the U.S. government's official web portal to all federal, state and local government web resources and services.